User: anonymous   Login
Location: Unspecified
(0.0000°N, 0.0000°E)
Time: 09:17:58
(UTC+00:00)
Language:

COSMOS 2416 - Orbit

View from above orbital plane
View from above orbital plane
View from above satellite
View from above satellite

Ground track
Ground track

The orbit data is extracted from the following two-line orbital elements,

1 28909U 05048B   17268.85585652 +.00000060 +00000-0 +30681-3 0  9990
2 28909 082.4731 186.4719 0008351 065.7461 294.4492 12.55166130538928
Epoch (UTC): 25 September 2017 20:32:26
Eccentricity: 0.0008351
inclination: 82.4731°
perigee height: 1436 km
apogee height: 1449 km
right ascension of ascending node: 186.4719°
argument of perigee: 65.7461°
revolutions per day: 12.55166130
mean anomaly at epoch: 294.4492°
orbit number at epoch: 53892

The dashed part of the orbit path shows where the satellite is in the earth's shadow,  

DLR